AirNav   Air Wisconsin Up To $57,000 Bonus
 
 1500 users online  

2T7 Van Camp's Heliport
Tecumseh, Michigan, USA

GOING TO TECUMSEH?


FAA INFORMATION EFFECTIVE 05 NOVEMBER 2020

Location

FAA Identifier: 2T7
Lat/Long: 42-01-09.2400N 083-50-55.1400W
42-01.154000N 083-50.919000W
42.0192333,-83.8486500
(estimated)
Elevation: 740 ft. / 226 m (estimated)
From city: 5 miles NE of TECUMSEH, MI
Time zone: UTC -5 (UTC -4 during Daylight Saving Time)
Zip code: 49286

Heliport Operations

Heliport use: Open to the public
Activation date: 11/2003
Control tower: no
ARTCC: CLEVELAND CENTER
FSS: LANSING FLIGHT SERVICE STATION
NOTAMs facility: LAN (NOTAM-D service available)
Attendance: IREG
Wind indicator: yes
Segmented circle: no

Heliport Communications

CTAF: 122.9
WX ASOS at ARB (13 nm N): PHONE 734-668-7173
WX ASOS at ADG (14 nm SW): 118.375 (517-265-9089)
WX AWOS-3 at DUH (19 nm SE): 119.175 (734-856-1563)
WX AWOS-3 at TTF (19 nm E): 119.075 (734-384-0259)
WX ASOS at YIP (19 nm NE): PHONE 734-961-6843

Nearby radio navigation aids

VOR radial/distance  VOR name  Freq  Var
CRLr267/17.5CARLETON VOR/DME115.7003W
DXOr248/24.4DETROIT VOR/DME113.4006W
SVMr209/26.0SALEM VORTAC114.3003W

 
NDB name  Hdg/Dist  Freq  Var  ID
TECUMSEH124/1.923906WTCU - -.-. ..-
ADRIAN055/13.627806WADG .- -.. --.
GROSSE ILE268/31.441907WRYS .-. -.-- ...

Heliport Services

Parking: tiedowns
Airframe service: MAJOR
Powerplant service: MAJOR

Runway Information

Helipad H1

Dimensions: 90 x 50 ft. / 27 x 15 m
Surface: turf, in good condition
Runway edge markings: MKD WITH CONES.
Traffic pattern: leftleft

Heliport Ownership and Management from official FAA records

Ownership: Privately-owned
Owner: CRAIG VAN CAMP
8735 MILLS MACON HWY
TECUMSEH, MI 49286
Phone 517-424-7675
Manager: CRAIG VAN CAMP
8735 MILLS MACON HWY
TECUMSEH, MI 49286
Phone 517-605-3129

Heliport Operational Statistics

Aircraft based on the field: 2
Single engine airplanes: 1
Helicopters: 1
    
Aircraft operations: 100/year *
50% transient general aviation
50% local general aviation
* for 12-month period ending 31 December 2016

Additional Remarks

A52-H1 35 FT TREE 102 FT FM HELIPORT 180 DEGS, APCH RATIO 2:1. 60 FT TREE 80 FT FM HELIPORT 270 DEGS APCH RATIO 2:1.
APCH/DEP USE ADJ N-S RWY.
FOR CD CTC DETROIT APCH AT 800-499-8181.

Instrument Procedures

There are no published instrument procedures at 2T7.

Some nearby airports with instrument procedures:

KARB - Ann Arbor Municipal Airport (13 nm N)
KADG - Lenawee County Airport (14 nm SW)
KDUH - Toledo Suburban Airport (19 nm SE)
KTTF - Custer Airport (19 nm E)
KYIP - Willow Run Airport (19 nm NE)
 
Loc | Ops | Rwys | IFR | FBO | Links
Com | Nav | Svcs | Stats | Notes
Area around 2T7 (Van Camp's Heliport)
 
Road maps at: MapQuest Bing Google
 
Aerial photo
No photo
 
Sectional chart

 
Airport distance calculator
Flying to Van Camp's Heliport? Find the distance to fly.

From to 2T7

Sunrise and sunset
Times for 23-Nov-2020
 Local
(UTC-5)
 Zulu
(UTC)
Morning civil twilight07:0612:06
Sunrise07:3712:37
Sunset17:0722:07
Evening civil twilight17:3822:38

Current date and time
Zulu (UTC)  23-Nov-2020 17:23:58
Local (UTC-5)  23-Nov-2020 12:23:58
 
METAR
KARB 
13nm NE 
734-668-7173
231653Z 31012G18KT 10SM FEW027 BKN036 06/01 A3023 RMK AO2 SLP246 T00560006
KADG 
14nm SW 
231653Z AUTO 32009G17KT 10SM FEW034 06/M02 A3026 RMK AO2 SLP256 T00561017 TSNO
KYIP 
19nm NE 
231653Z 29012G22KT 10SM SCT036 08/01 A3024 RMK AO2 SLP242 T00780006
KDUH 
19nm SE 
231655Z AUTO 29007KT 10SM CLR 06/01 A3025 RMK AO2 T00640007
KTTF 
20nm E 
231655Z AUTO 29011G15KT 10SM CLR 05/00 A3024 RMK AO2 T00531002
TAF
KYIP 
19nm NE 
230520Z 2306/2406 28007KT P6SM OVC008 FM230800 28007KT P6SM OVC015 FM231000 23007KT P6SM OVC015 TEMPO 2310/2313 4SM -SHRASN FM231400 27012G20KT P6SM BKN025 FM232200 28010KT P6SM FEW035 FM240400 33003KT P6SM SKC
NOTAMs
Click for the latest NOTAMs
NOTAMs are issued by the DoD/FAA and will open in a separate window not controlled by AirNav.

 

 
 

Would you like to see your business listed on this page?

 If your business provides an interesting product or service to pilots, flight crews, aircraft, or users of the Van Camp's Heliport, you should consider listing it here.  To start the listing process, click on the button below
 
Add a business
 

Other Pages about Van Camp's Heliport

Page from the Michigan Airport Directory (PDF)
 
Update a link
 
Copyright © AirNav, LLC. All rights reserved. Privacy Policy  Contact